Regional Weather Roundup
Issued by NWS Green Bay, WI

Home | Current Version | Previous Version | Graphics & Text | Print | Product List | Glossary Off
Versions: 1 2 3 4 5 6 7 8 9 10 11 12 13 14 15 16 17 18 19 20 21 22 23 24 25 26 27 28 29 30 31 32 33 34 35 36 37 38 39 40 41 42 43 44 45 46 47 48 49 50

000
ASUS43 KGRB 291711
RWRGRB

NORTH-CENTRAL AND NORTHEAST WISCONSIN REGIONAL WEATHER ROUNDUP
NATIONAL WEATHER SERVICE GREEN BAY WI
1200 PM CDT MON JUN 29 2015

WIZ005-009-010>012-018-019-291800-
NORTH CENTRAL WISCONSIN

CITY           SKY/WX    TMP DP  RH WIND       PRES   REMARKS
IRONWOOD       SUNNY     73  63  68 W7        29.74F
MANITOWISH WTR PTSUNNY   72  63  73 W6        29.81R
ARBOR VITAE    MOSUNNY   72  60  64 NW3       29.81S
EAGLE RIVER    MOSUNNY   72  56  57 W7        29.81S
LAND O LAKES   PTSUNNY   72  58  61 W3        29.82S
RHINELANDER    MOSUNNY   74  56  53 MISG      29.83S
PHILLIPS       MOSUNNY   73  61  64 NW6       29.81S
ANTIGO         PTSUNNY   72  61  67 W3        29.82S
TOMAHAWK       MOSUNNY   72  57  58 NW3       29.82S
MERRILL        MOSUNNY   73  57  58 CALM      29.83R
$$

WIZ013-073-291800-
NORTHEAST WISCONSIN

CITY           SKY/WX    TMP DP  RH WIND       PRES   REMARKS
IRON MOUNTAIN  MOSUNNY   77  57  50 S9        29.78S
MARINETTE      MOSUNNY   73  57  56 S10       29.80S
OCONTO         CLOUDY    74  57  56 S7        29.81S
$$

WIZ017-030-035>037-045-291800-
CENTRAL WISCONSIN

CITY           SKY/WX    TMP DP  RH WIND       PRES   REMARKS
MEDFORD        CLOUDY    71  60  68 CALM      29.83R
WAUSAU         SUNNY     73  59  61 SW5       29.80S
MOSINEE        PTSUNNY   73  61  64 W5        29.83S
MARSHFIELD     PTSUNNY   72  59  63 CALM      29.83S
WISC RAPIDS    MOSUNNY   74  59  59 VRB6      29.83F
STEVENS POINT  PTSUNNY   71  59  66 SW7       29.82S
WAUPACA        CLOUDY    73  62  67 S3        29.82S
SHAWANO        CLOUDY    77  58  52 S7        29.81S
CLINTONVILLE   CLOUDY   N/A N/A N/A S8        29.81S
$$

WIZ038-039-048-051-291800-
FOX VALLEY

CITY           SKY/WX    TMP DP  RH WIND       PRES   REMARKS
NWS GREEN BAY  MOSUNNY   75  58  55 VRB3      29.82S
APPLETON       PTSUNNY   72  57  60 SE8       29.82S
OSHKOSH        CLOUDY    74  60  61 S8        29.81S
FOND DU LAC    PTSUNNY   73  60  63 S6        29.82S
$$

WIZ022-050-052-291800-
EAST CENTRAL WISCONSIN

CITY           SKY/WX    TMP DP  RH WIND       PRES   REMARKS
STURGEON BAY   SUNNY     72  52  49 SE12      29.84F
MANITOWOC      MOSUNNY   70  55  59 MISG      29.83S
SHEBOYGAN      MOSUNNY   74  60  61 S6        29.83R
$$

LMZ563-521-522-541>543-291800-
LAKESHORE

STATION/POSITION TIME  TEMP    WIND        PRES    VSBY  WAVE
                       AIR SEA DIR/SP/G                  HT/PER
                 (UTC) (F)     (DEG/KT/KT) (MB)    (MI)  (FT/S)
SHEBOYGAN LKSHOR 1700   63     170/  9/  9 1010.3S
KEWAUNEE LKSHORE 1600   59     160/  8/  9 1009.7R
ALGOMA MARINA    1610          200/  6/  7   N/A
NORTHPORT PIER   1600   67     140/  8/  9 1009.5F
N MID LAKE BUOY  1650   54 48  210/  6/  8 1010.0S         0
S GREEN BAY BUOY 1630   69 71  230/  4/  4 1011.1F
CHAMBERS ISLAND  1600   73     160/  3/  6 1009.5S
MENOMINEE LKSHOR 1600   68     150/  8/  9 1010.1F
$$


USA.gov is the U.S. government's official web portal to all federal, state and local government web resources and services.